Regional Weather Roundup
Issued by NWS Newport/Morehead, NC

Current Version | Previous Version | Text Only | Print | Product List | Glossary Off
Versions: 1 2 3 4 5 6 7 8 9 10 11 12 13 14 15 16 17 18 19 20 21 22 23 24 25 26 27 28 29 30 31 32 33 34 35 36 37 38 39 40 41 42 43 44 45 46 47 48 49 50
000 ASUS42 KMHX 261925 RWRMHX WEATHER ROUNDUP FOR EASTERN NORTH CAROLINA NATIONAL WEATHER SERVICE NEWPORT/MOREHEAD CITY NC 300 PM EDT WED APR 26 2017 NOTE: "FAIR" INDICATES FEW OR NO CLOUDS BELOW 12,000 FEET WITH NO SIGNIFICANT WEATHER AND/OR OBSTRUCTIONS TO VISIBILITY NCZ015>017-031-032-045>047-102-103-262000- NORTH COAST CITY SKY/WX TMP DP RH WIND PRES REMARKS EDENTON CLOUDY 72 61 69 CALM 29.81F ELIZABETH CITY CLOUDY 71 61 70 SW8 29.79F KITTY HAWK PTCLDY 70 57 64 W5 29.80F MANTEO PTSUNNY 69 59 70 W7 29.82S $$ NCZ045>047-081-094-103-104-262000- CENTRAL COAST CITY SKY/WX TMP DP RH WIND PRES REMARKS FRISCO SUNNY 73 59 61 W7G17 29.82F $$ NCZ095-097-098-100-101-262000- SOUTHERN COAST CITY SKY/WX TMP DP RH WIND PRES REMARKS BEAUFORT SUNNY 72 65 78 SW20 29.82F CEDAR ISLAND NOT AVBL JACKSONVILLE MOSUNNY 80 64 58 W9 29.80F PINEY ISLAND PTCLDY N/A N/A N/A W12 29.81F WILMINGTON PTSUNNY 80 61 52 SW9 29.81F $$ NCZ011>013-027>030-043-044-078>080-089-090>093-098-262000- COASTAL PLAIN CITY SKY/WX TMP DP RH WIND PRES REMARKS AHOSKIE N/A 73 62 68 CALM 29.79S CLINTON SUNNY 81 63 54 W9 29.80F ELIZABETHTOWN MOSUNNY 80 62 53 SW8 29.81F GOLDSBORO MOSUNNY 78 65 62 W7G17 29.78F GREENVILLE CLOUDY 77 63 61 W7 29.83S HAVELOCK PTSUNNY 78 62 57 SW13 29.81F KENANSVILLE MOSUNNY 79 63 57 SW7 29.80F KINSTON MOSUNNY 79 61 53 SW9 29.81F NEW BERN MOSUNNY 78 63 59 W5 29.81F RICHLANDS SUNNY 80 64 58 S10 29.81F ROCKY MOUNT PTSUNNY 76 62 62 W12 29.79F WASHINGTON MOSUNNY 75 62 64 W5 29.79F WHITEVILLE MOSUNNY 81 62 51 SW7 29.81F $$ AMZ130-135-150-152-154-156-158-170-250-252-270-ANZ085-086-088-633-658-670-262000- MARINE OBSERVATIONS STATION/POSITION TIME TEMP WIND PRES WAVE SWELL AIR SEA DIR/SP/G HT/PER HT/PER (UTC) (F) (DEG/KT/KT) (MB) (FT/S) (FT/S) CHESAPEAKE LIGHT NOT AVBL 64 E VA BEACH 1850 58 56 250/ 4/ 6 1009.7 7/ 9 7/ 9 DUCK 1900 67 60 230/ 10/ 11 1008.5 2 E DUCK 1900 61 N/A 4/ 9 2/13 OREGON INLET 1900 67 65 260/ 6/ 9 1009.3 13E OREGON INLT 1848 62 N/A 5/ 9 5/ 9 HATTERAS CG 1900 69 68 260/ 10/ 12 1009.6 DIAMOND BUOY 1850 69 77 260/ 12/ 16 1010.1 6/10 5/10 CAPE LOOKOUT 1900 70 210/ 14/ 16 1009.7 BEAUFORT LAB 1900 70 67 200/ 16/ 17 1008.9 30 SE NEW RVR IN 1908 69 220/ 6/ 10 1010.4 30 SE NEW RVR IN 1843 72 N/A 4/ 9 2/11 27 SE WRIGHTSVLE 1908 71 72 200/ 8/ 10 1009.3 5 SE WRIGHTSVLE 1908 71 71 190/ 12/ 17 1009.5 225 S CAPE HAT 1850 74 75 280/ 16/ 21 1012.7 7/ 8 5/ 8 41 SE CHARLESTON 1910 72 73 220/ 10/ 14 1010.6 $$

USA.gov is the U.S. government's official web portal to all federal, state and local government web resources and services.